DLH450 EDDF-KLAX

Flight info

Callsign DLH450
Flight time N/A
Altitude 34000
Route OBOKA3M/25C OBOKA Z28 DIBIR DCT BUDIP DCT ALFEN DCT MIMVA DCT GETNO DCT NINEB DCT BELZU DCT KUGUR DCT SUNOT/M083F350 DCT 58N020W 59N030W 58N040W 56N050W DCT JANJO/N0477F360 DCT DENSO DCT AGLOL DCT MERNU DCT XEXUL/N0475F380 DCT BLUOX DCT RAP J158 DDY J107 NORRA J100 LAS Q70 HAILO DCT KOPLE BOGET2
Aircraft A346/H-SDE2E3FGHIJ3J4J5M1RWXY/LB1D1

Departure

Time 2026-04-14 08:01
Airport Frankfurt Main Airport (EDDF)

Arrival

Time N/A
Airport Los Angeles International Airport (KLAX)
Time Latitude Longitude Altitude Speed Heading
2026-04-14 07:37 50.04721 8.56278 365 ft 0 kts 340°
2026-04-14 07:49 50.04706 8.56287 365 ft 4 kts 340°
2026-04-14 07:49 50.04681 8.56301 365 ft 4 kts 338°
2026-04-14 07:50 50.04661 8.56319 368 ft 4 kts 313°
2026-04-14 07:50 50.04651 8.56346 365 ft 4 kts 279°
2026-04-14 07:50 50.04653 8.56379 364 ft 2 kts 251°
2026-04-14 07:50 50.04661 8.56410 366 ft 4 kts 248°
2026-04-14 07:51 50.04664 8.56426 368 ft 0 kts 250°
2026-04-14 07:53 50.04664 8.56425 358 ft 0 kts 250°
2026-04-14 07:53 50.04660 8.56408 366 ft 3 kts 250°
2026-04-14 07:54 50.04649 8.56362 365 ft 6 kts 250°
2026-04-14 07:54 50.04631 8.56287 362 ft 9 kts 250°
2026-04-14 07:54 50.04607 8.56184 361 ft 11 kts 249°
2026-04-14 07:54 50.04577 8.56059 363 ft 13 kts 249°
2026-04-14 07:55 50.04516 8.55950 366 ft 15 kts 202°
2026-04-14 07:55 50.04414 8.55909 365 ft 16 kts 184°
2026-04-14 07:55 50.04304 8.55951 363 ft 17 kts 160°
2026-04-14 07:55 50.04197 8.55919 364 ft 16 kts 178°
2026-04-14 07:56 50.04089 8.55984 366 ft 17 kts 136°
2026-04-14 07:56 50.04098 8.56157 367 ft 18 kts 70°
2026-04-14 07:56 50.04141 8.56340 364 ft 18 kts 70°
2026-04-14 07:56 50.04188 8.56534 364 ft 20 kts 69°
2026-04-14 07:57 50.04238 8.56747 359 ft 22 kts 70°
2026-04-14 07:57 50.04293 8.56974 363 ft 23 kts 69°
2026-04-14 07:57 50.04352 8.57221 360 ft 25 kts 70°
2026-04-14 07:57 50.04408 8.57456 366 ft 19 kts 69°
2026-04-14 07:58 50.04457 8.57662 366 ft 21 kts 70°
2026-04-14 07:58 50.04511 8.57888 366 ft 23 kts 70°
2026-04-14 07:58 50.04567 8.58124 361 ft 24 kts 70°
2026-04-14 07:58 50.04628 8.58377 362 ft 25 kts 69°
2026-04-14 07:59 50.04632 8.58557 363 ft 12 kts 140°
2026-04-14 07:59 50.04552 8.58614 363 ft 14 kts 164°
2026-04-14 07:59 50.04513 8.58625 364 ft 2 kts 210°
2026-04-14 07:59 50.04494 8.58590 366 ft 5 kts 237°
2026-04-14 08:00 50.04441 8.58399 365 ft 44 kts 250°
2026-04-14 08:00 50.04270 8.57680 362 ft 95 kts 250°
2026-04-14 08:00 50.03983 8.56482 363 ft 139 kts 250°
2026-04-14 08:00 50.03598 8.54888 364 ft 175 kts 250°
2026-04-14 08:01 50.03126 8.53005 590 ft 187 kts 250°
2026-04-14 08:01 50.02641 8.51144 1067 ft 187 kts 247°
2026-04-14 08:01 50.01784 8.49599 1393 ft 198 kts 206°
2026-04-14 08:01 50.00472 8.48912 1803 ft 200 kts 196°
2026-04-14 08:02 49.99100 8.48349 2129 ft 206 kts 195°
2026-04-14 08:02 49.97685 8.47758 2410 ft 214 kts 196°
2026-04-14 08:02 49.96237 8.47128 2674 ft 217 kts 196°
2026-04-14 08:02 49.94764 8.46465 2875 ft 225 kts 197°
2026-04-14 08:03 49.93235 8.45767 3087 ft 234 kts 197°
2026-04-14 08:03 49.91684 8.44815 3273 ft 246 kts 217°
2026-04-14 08:03 49.90513 8.42857 3635 ft 251 kts 240°
2026-04-14 08:03 49.89631 8.40522 4304 ft 250 kts 243°
2026-04-14 08:04 49.88823 8.38143 5001 ft 248 kts 252°
2026-04-14 08:04 49.88512 8.35548 5636 ft 247 kts 273°
2026-04-14 08:04 49.88628 8.32823 5997 ft 260 kts 277°
2026-04-14 08:04 49.88817 8.29980 6373 ft 269 kts 277°
2026-04-14 08:05 49.89131 8.27107 6825 ft 269 kts 289°
2026-04-14 08:05 49.89942 8.24507 6995 ft 270 kts 305°
2026-04-14 08:05 49.91047 8.22156 7022 ft 269 kts 308°
2026-04-14 08:05 49.92187 8.19857 7008 ft 268 kts 308°
2026-04-14 08:06 49.93317 8.17572 6996 ft 265 kts 310°
2026-04-14 08:06 49.94548 8.15447 6987 ft 265 kts 316°
2026-04-14 08:06 49.95915 8.13512 6992 ft 266 kts 320°
2026-04-14 08:06 49.97318 8.11643 6994 ft 264 kts 320°
2026-04-14 08:07 49.98715 8.09793 6986 ft 265 kts 320°
2026-04-14 08:07 50.00124 8.07922 7040 ft 268 kts 320°
2026-04-14 08:07 50.01560 8.06012 7520 ft 272 kts 320°
2026-04-14 08:07 50.02973 8.04134 8263 ft 271 kts 319°
2026-04-14 08:08 50.04437 8.02182 8873 ft 277 kts 318°
2026-04-14 08:08 50.05893 8.00231 9414 ft 283 kts 317°
2026-04-14 08:08 50.07396 7.98217 10033 ft 287 kts 317°
2026-04-14 08:08 50.08938 7.96140 10552 ft 293 kts 317°
2026-04-14 08:09 50.10495 7.94039 10819 ft 307 kts 317°
2026-04-14 08:09 50.12150 7.91808 11087 ft 322 kts 317°
2026-04-14 08:09 50.13884 7.89471 11347 ft 336 kts 317°
2026-04-14 08:09 50.15687 7.87038 11617 ft 350 kts 317°
2026-04-14 08:10 50.17570 7.84497 11882 ft 364 kts 317°
2026-04-14 08:10 50.19518 7.81864 12184 ft 376 kts 317°
2026-04-14 08:10 50.21514 7.79165 12735 ft 380 kts 317°
2026-04-14 08:10 50.23539 7.76471 13382 ft 384 kts 319°
2026-04-14 08:11 50.25731 7.74033 13957 ft 390 kts 325°
2026-04-14 08:11 50.28125 7.71957 14453 ft 396 kts 332°
2026-04-14 08:11 50.30643 7.70171 15013 ft 399 kts 334°
2026-04-14 08:11 50.33203 7.68448 15574 ft 401 kts 335°
2026-04-14 08:12 50.35775 7.66718 16145 ft 403 kts 335°
2026-04-14 08:12 50.38356 7.64963 16702 ft 405 kts 335°
2026-04-14 08:12 50.40948 7.63188 17262 ft 407 kts 335°
2026-04-14 08:12 50.43552 7.61399 17832 ft 409 kts 335°
2026-04-14 08:13 50.46168 7.59599 18391 ft 411 kts 335°
2026-04-14 08:13 50.48794 7.57791 18879 ft 413 kts 335°
2026-04-14 08:13 50.51438 7.55967 19317 ft 417 kts 335°
2026-04-14 08:13 50.54083 7.54061 19710 ft 420 kts 332°
2026-04-14 08:14 50.56684 7.51900 20117 ft 423 kts 329°
2026-04-14 08:14 50.59224 7.49481 20527 ft 426 kts 326°
2026-04-14 08:14 50.61724 7.46942 20962 ft 429 kts 325°
2026-04-14 08:14 50.64230 7.44352 21437 ft 431 kts 325°
2026-04-14 08:15 50.66734 7.41772 21972 ft 431 kts 325°
2026-04-14 08:15 50.69252 7.39181 22424 ft 433 kts 325°
2026-04-14 08:15 50.71767 7.36523 22803 ft 436 kts 322°
2026-04-14 08:15 50.74100 7.33444 23188 ft 437 kts 315°
2026-04-14 08:16 50.76172 7.29922 23595 ft 439 kts 307°
2026-04-14 08:16 50.77982 7.26105 23951 ft 440 kts 304°
2026-04-14 08:16 50.79774 7.22082 24300 ft 443 kts 303°
2026-04-14 08:16 50.81539 7.18071 24649 ft 445 kts 303°
2026-04-14 08:17 50.83288 7.14103 25004 ft 446 kts 303°
2026-04-14 08:17 50.85097 7.10015 25365 ft 448 kts 304°
2026-04-14 08:17 50.86892 7.05965 25711 ft 450 kts 304°
2026-04-14 08:17 50.88669 7.01954 26064 ft 451 kts 304°
2026-04-14 08:18 50.90471 6.97887 26432 ft 452 kts 304°
2026-04-14 08:18 50.92282 6.93794 26770 ft 454 kts 304°
2026-04-14 08:18 50.94102 6.89675 27082 ft 456 kts 304°
2026-04-14 08:18 50.95927 6.85539 27395 ft 458 kts 304°
2026-04-14 08:19 50.97757 6.81383 27703 ft 460 kts 304°
2026-04-14 08:19 50.99590 6.77215 28029 ft 462 kts 304°
2026-04-14 08:19 51.01429 6.73029 28431 ft 461 kts 304°
2026-04-14 08:19 51.03281 6.68804 28922 ft 459 kts 304°
2026-04-14 08:20 51.05079 6.64696 29403 ft 457 kts 304°
2026-04-14 08:20 51.06893 6.60540 29864 ft 455 kts 304°
2026-04-14 08:20 51.08692 6.56414 30380 ft 452 kts 304°
2026-04-14 08:20 51.10480 6.52308 30819 ft 449 kts 304°
2026-04-14 08:21 51.12252 6.48229 31195 ft 448 kts 304°
2026-04-14 08:21 51.14021 6.44149 31534 ft 447 kts 304°
2026-04-14 08:21 51.15792 6.40062 31866 ft 446 kts 304°
2026-04-14 08:21 51.17557 6.35986 32211 ft 446 kts 304°
2026-04-14 08:22 51.19313 6.31921 32529 ft 445 kts 304°
2026-04-14 08:22 51.21062 6.27863 32809 ft 445 kts 304°
2026-04-14 08:22 51.22822 6.23775 33060 ft 446 kts 304°
2026-04-14 08:22 51.24584 6.19675 33275 ft 447 kts 304°
2026-04-14 08:23 51.26337 6.15580 33580 ft 447 kts 304°
2026-04-14 08:23 51.28086 6.11486 33911 ft 445 kts 304°
2026-04-14 08:23 51.29800 6.07352 34164 ft 446 kts 303°
2026-04-14 08:24 51.33198 5.99022 34168 ft 447 kts 304°
2026-04-14 08:24 51.36896 5.91017 34177 ft 447 kts 309°
2026-04-14 08:25 51.41081 5.83645 34154 ft 447 kts 315°
2026-04-14 08:25 51.44936 5.78001 34152 ft 448 kts 319°
2026-04-14 08:26 51.49703 5.71597 34153 ft 445 kts 319°
2026-04-14 08:26 51.54458 5.65239 34162 ft 444 kts 319°
2026-04-14 08:27 51.59198 5.58877 34182 ft 444 kts 319°
2026-04-14 08:27 51.63932 5.52498 34179 ft 444 kts 319°
2026-04-14 08:28 51.68668 5.46096 34190 ft 444 kts 319°
2026-04-14 08:28 51.73358 5.39742 34171 ft 443 kts 319°
2026-04-14 08:29 51.78108 5.33282 34186 ft 443 kts 319°
2026-04-14 08:29 51.82788 5.26895 34162 ft 439 kts 319°
2026-04-14 08:30 51.87451 5.20523 34174 ft 438 kts 319°
2026-04-14 08:30 51.92109 5.14138 34161 ft 438 kts 319°
2026-04-14 08:31 51.96765 5.07741 34172 ft 439 kts 319°
2026-04-14 08:31 52.03740 4.98113 34166 ft 439 kts 319°
2026-04-14 08:32 52.08399 4.91661 34162 ft 439 kts 319°
2026-04-14 08:32 52.13034 4.85219 34148 ft 437 kts 319°
2026-04-14 08:33 52.17623 4.78746 34166 ft 436 kts 317°
2026-04-14 08:33 52.22034 4.71934 34159 ft 436 kts 315°
2026-04-14 08:34 52.26414 4.65070 34159 ft 437 kts 315°
2026-04-14 08:34 52.30795 4.58192 34157 ft 437 kts 315°
2026-04-14 08:35 52.35178 4.51297 34162 ft 436 kts 315°
2026-04-14 08:35 52.39554 4.44397 34162 ft 436 kts 315°
2026-04-14 08:36 52.43925 4.37483 34163 ft 437 kts 315°
2026-04-14 08:36 52.48300 4.30550 34166 ft 437 kts 315°
2026-04-14 08:37 52.52671 4.23596 34165 ft 438 kts 315°
2026-04-14 08:37 52.57041 4.16624 34168 ft 438 kts 315°
2026-04-14 08:38 52.61408 4.09635 34164 ft 437 kts 315°
2026-04-14 08:38 52.65767 4.02640 34164 ft 437 kts 315°
2026-04-14 08:39 52.70116 3.95640 34183 ft 435 kts 315°
2026-04-14 08:39 52.74444 3.88661 34170 ft 435 kts 315°
2026-04-14 08:40 52.78768 3.81660 34163 ft 435 kts 315°
2026-04-14 08:40 52.83089 3.74645 34159 ft 435 kts 315°
2026-04-14 08:41 52.87371 3.67674 34159 ft 435 kts 314°
2026-04-14 08:41 52.91681 3.60636 34148 ft 435 kts 314°
2026-04-14 08:42 52.96016 3.53538 34170 ft 435 kts 314°
2026-04-14 08:42 53.00269 3.46551 34154 ft 432 kts 314°
2026-04-14 08:43 53.04443 3.39374 34143 ft 431 kts 310°
2026-04-14 08:43 53.07981 3.31312 34147 ft 431 kts 302°
2026-04-14 08:44 53.10744 3.22443 34146 ft 432 kts 294°
2026-04-14 08:44 53.12670 3.12959 34140 ft 434 kts 287°
2026-04-14 08:45 53.14168 3.03200 34144 ft 433 kts 286°
2026-04-14 08:45 53.15623 2.93502 34147 ft 430 kts 286°
2026-04-14 08:46 53.17068 2.83825 34142 ft 430 kts 286°
2026-04-14 08:46 53.18507 2.74127 34142 ft 430 kts 286°
2026-04-14 08:47 53.19937 2.64433 34141 ft 430 kts 286°
2026-04-14 08:47 53.21350 2.54794 34135 ft 430 kts 286°
2026-04-14 08:48 53.22763 2.45071 34156 ft 426 kts 286°
2026-04-14 08:48 53.24147 2.35523 34140 ft 425 kts 286°
2026-04-14 08:49 53.25530 2.25907 34133 ft 425 kts 286°
2026-04-14 08:49 53.26905 2.16291 34138 ft 425 kts 286°
2026-04-14 08:50 53.28274 2.06659 34137 ft 425 kts 285°
2026-04-14 08:50 53.29630 1.97035 34136 ft 423 kts 286°
2026-04-14 08:51 53.30988 1.87357 34141 ft 422 kts 285°
2026-04-14 08:51 53.32326 1.77762 34138 ft 422 kts 285°
2026-04-14 08:52 53.33645 1.68245 34140 ft 422 kts 285°
2026-04-14 08:52 53.34964 1.58657 34138 ft 422 kts 285°
2026-04-14 08:53 53.36277 1.49057 34128 ft 421 kts 285°
2026-04-14 08:53 53.37572 1.39493 34131 ft 421 kts 285°
2026-04-14 08:54 53.38864 1.29901 34132 ft 421 kts 285°
2026-04-14 08:54 53.40147 1.20318 34126 ft 421 kts 285°
2026-04-14 08:55 53.41424 1.10727 34127 ft 421 kts 285°
2026-04-14 08:55 53.42695 1.01124 34104 ft 421 kts 285°
2026-04-14 08:56 53.43953 0.91556 34125 ft 420 kts 285°
2026-04-14 08:56 53.45203 0.81975 34122 ft 419 kts 285°
2026-04-14 08:57 53.46446 0.72395 34121 ft 420 kts 285°
2026-04-14 08:57 53.47681 0.62810 34121 ft 420 kts 285°
2026-04-14 08:58 53.48909 0.53211 34118 ft 420 kts 285°
2026-04-14 08:58 53.50128 0.43612 34121 ft 420 kts 285°
2026-04-14 08:59 53.51343 0.33990 34112 ft 420 kts 284°
2026-04-14 08:59 53.52548 0.24365 34113 ft 420 kts 284°
2026-04-14 09:00 53.53745 0.14741 34102 ft 420 kts 284°
2026-04-14 09:00 53.54935 0.05109 34115 ft 420 kts 284°
2026-04-14 09:01 53.56115 -0.04516 34091 ft 420 kts 284°
2026-04-14 09:01 53.57291 -0.14173 34091 ft 421 kts 284°
2026-04-14 09:02 53.58459 -0.23826 34096 ft 421 kts 284°
2026-04-14 09:02 53.59619 -0.33486 34101 ft 421 kts 284°
2026-04-14 09:03 53.60773 -0.43166 34099 ft 420 kts 284°
2026-04-14 09:03 53.61916 -0.52825 34096 ft 420 kts 284°
2026-04-14 09:04 53.63054 -0.62518 34099 ft 420 kts 284°
2026-04-14 09:04 53.64182 -0.72191 34086 ft 420 kts 284°
2026-04-14 09:05 53.65296 -0.81816 34081 ft 420 kts 284°
2026-04-14 09:05 53.66416 -0.91566 34077 ft 420 kts 284°
2026-04-14 09:06 53.67515 -1.01215 34076 ft 420 kts 284°
2026-04-14 09:06 53.68607 -1.10871 34067 ft 415 kts 284°
2026-04-14 09:07 53.69679 -1.20427 34069 ft 413 kts 284°
2026-04-14 09:07 53.70743 -1.29973 34061 ft 413 kts 284°
2026-04-14 09:08 53.71800 -1.39523 34057 ft 413 kts 283°
2026-04-14 09:08 53.72855 -1.49138 34059 ft 413 kts 283°
2026-04-14 09:09 53.73904 -1.58734 34051 ft 415 kts 283°
2026-04-14 09:09 53.74928 -1.68252 34047 ft 409 kts 283°
2026-04-14 09:10 53.75770 -1.76114 34049 ft 409 kts 283°
2026-04-14 09:10 53.76941 -1.87121 34049 ft 409 kts 283°
2026-04-14 09:11 53.77778 -1.95048 34053 ft 408 kts 283°
2026-04-14 09:11 53.78768 -2.04496 34052 ft 408 kts 283°
2026-04-14 09:12 53.79746 -2.13942 34040 ft 402 kts 283°
2026-04-14 09:12 53.80700 -2.23197 34045 ft 398 kts 283°
2026-04-14 09:13 53.81647 -2.32425 34035 ft 397 kts 283°
2026-04-14 09:13 53.82586 -2.41659 34034 ft 397 kts 283°
2026-04-14 09:14 53.83515 -2.50887 34037 ft 397 kts 283°
2026-04-14 09:14 53.84439 -2.60131 34027 ft 397 kts 283°
2026-04-14 09:15 53.85344 -2.69294 34023 ft 390 kts 283°
2026-04-14 09:15 53.86233 -2.78336 34016 ft 388 kts 283°
2026-04-14 09:16 53.87111 -2.87321 34022 ft 388 kts 283°
2026-04-14 09:16 53.87986 -2.96370 34020 ft 388 kts 283°
2026-04-14 09:17 53.88854 -3.05413 34017 ft 388 kts 283°
2026-04-14 09:17 53.89716 -3.14470 34010 ft 388 kts 283°
2026-04-14 09:18 53.90570 -3.23486 34012 ft 385 kts 282°
2026-04-14 09:18 53.91408 -3.32480 34014 ft 385 kts 282°
2026-04-14 09:19 53.92251 -3.41457 34003 ft 385 kts 283°
2026-04-14 09:19 53.93409 -3.50331 34000 ft 383 kts 287°
2026-04-14 09:20 53.94992 -3.58963 34003 ft 383 kts 290°
2026-04-14 09:20 53.96774 -3.67502 33996 ft 383 kts 291°
2026-04-14 09:21 53.98565 -3.76023 33991 ft 382 kts 290°
2026-04-14 09:21 54.00346 -3.84538 33985 ft 382 kts 290°
2026-04-14 09:22 54.02126 -3.93066 33987 ft 382 kts 290°
2026-04-14 09:22 54.03899 -4.01595 33974 ft 382 kts 290°
2026-04-14 09:23 54.05717 -4.10106 33974 ft 382 kts 292°
2026-04-14 09:23 54.07881 -4.18319 33972 ft 382 kts 295°
2026-04-14 09:24 54.10274 -4.26436 33963 ft 384 kts 295°
2026-04-14 09:24 54.12676 -4.34589 33964 ft 385 kts 295°
2026-04-14 09:25 54.15097 -4.42823 33965 ft 385 kts 295°
2026-04-14 09:25 54.17480 -4.50941 33973 ft 384 kts 295°
2026-04-14 09:26 54.19865 -4.59093 33962 ft 383 kts 295°
2026-04-14 09:26 54.22244 -4.67253 33945 ft 383 kts 295°
2026-04-14 09:27 54.24616 -4.75417 33949 ft 383 kts 295°
2026-04-14 09:27 54.26995 -4.83612 33944 ft 385 kts 294°
2026-04-14 09:28 54.29373 -4.91860 33945 ft 386 kts 294°
2026-04-14 09:28 54.31748 -5.00127 33946 ft 386 kts 294°
2026-04-14 09:29 54.34119 -5.08402 33945 ft 387 kts 294°
2026-04-14 09:29 54.36486 -5.16696 33939 ft 387 kts 294°
2026-04-14 09:30 54.38848 -5.24997 33974 ft 386 kts 294°
2026-04-14 09:30 54.41198 -5.33279 33946 ft 385 kts 294°
2026-04-14 09:31 54.43547 -5.41580 33922 ft 388 kts 293°
2026-04-14 09:31 54.45902 -5.49958 33932 ft 389 kts 293°
2026-04-14 09:32 54.48256 -5.58354 33931 ft 389 kts 293°
2026-04-14 09:33 54.51776 -5.70960 33916 ft 389 kts 292°
2026-04-14 09:33 54.54118 -5.79388 33910 ft 389 kts 292°
2026-04-14 09:34 54.56453 -5.87819 33909 ft 389 kts 292°
2026-04-14 09:34 54.58783 -5.96261 33910 ft 390 kts 292°
2026-04-14 09:35 54.61093 -6.04657 33938 ft 389 kts 292°
2026-04-14 09:35 54.63415 -6.13134 33885 ft 387 kts 292°
2026-04-14 09:36 54.65711 -6.21562 33878 ft 387 kts 291°
2026-04-14 09:36 54.67843 -6.30178 33887 ft 387 kts 290°
2026-04-14 09:37 54.69904 -6.38704 33889 ft 387 kts 290°
2026-04-14 09:37 54.71975 -6.47311 33887 ft 387 kts 290°
2026-04-14 09:38 54.74047 -6.55934 33880 ft 390 kts 289°
2026-04-14 09:38 54.76124 -6.64643 33883 ft 391 kts 289°
2026-04-14 09:39 54.78196 -6.73359 33870 ft 391 kts 289°
2026-04-14 09:39 54.80261 -6.82078 33868 ft 391 kts 289°
2026-04-14 09:40 54.82320 -6.90806 33896 ft 389 kts 289°
2026-04-14 09:40 54.84360 -6.99490 33861 ft 388 kts 289°
2026-04-14 09:41 54.86394 -7.08178 33836 ft 388 kts 289°
2026-04-14 09:41 54.88429 -7.16896 33843 ft 390 kts 288°
2026-04-14 09:42 54.90459 -7.25654 33839 ft 390 kts 288°
2026-04-14 09:42 54.92484 -7.34418 33823 ft 390 kts 288°
2026-04-14 09:43 54.94502 -7.43187 33826 ft 390 kts 288°
2026-04-14 09:43 54.96516 -7.51974 33818 ft 391 kts 288°
2026-04-14 09:44 54.98524 -7.60771 33808 ft 390 kts 288°
2026-04-14 09:44 55.00530 -7.69578 33806 ft 392 kts 288°
2026-04-14 09:45 55.02535 -7.78430 33805 ft 392 kts 287°
2026-04-14 09:45 55.04533 -7.87299 33791 ft 392 kts 287°
2026-04-14 09:46 55.06523 -7.96171 33782 ft 392 kts 287°
2026-04-14 09:46 55.08507 -8.05046 33774 ft 392 kts 287°
2026-04-14 09:47 55.10485 -8.13936 33771 ft 392 kts 287°
2026-04-14 09:47 55.12457 -8.22834 33773 ft 392 kts 287°
2026-04-14 09:48 55.14432 -8.31756 33772 ft 394 kts 286°
2026-04-14 09:48 55.16385 -8.40657 33777 ft 395 kts 286°
2026-04-14 09:49 55.18349 -8.49639 33774 ft 395 kts 286°
2026-04-14 09:49 55.20305 -8.58623 33774 ft 394 kts 286°
2026-04-14 09:50 55.22257 -8.67619 33794 ft 394 kts 286°
2026-04-14 09:50 55.24199 -8.76605 33776 ft 394 kts 286°
2026-04-14 09:51 55.26133 -8.85604 33784 ft 394 kts 285°
2026-04-14 09:51 55.28066 -8.94613 33771 ft 395 kts 285°
2026-04-14 09:52 55.29986 -9.03636 33767 ft 395 kts 285°
2026-04-14 09:52 55.31907 -9.12696 33757 ft 395 kts 285°
2026-04-14 09:53 55.33818 -9.21744 33762 ft 395 kts 285°
2026-04-14 09:53 55.35725 -9.30813 33760 ft 395 kts 285°
2026-04-14 09:54 55.37624 -9.39882 33744 ft 395 kts 284°
2026-04-14 09:54 55.39494 -9.48832 33748 ft 396 kts 284°
2026-04-14 09:55 55.41327 -9.57663 33774 ft 397 kts 284°
2026-04-14 09:55 55.43214 -9.66803 33745 ft 396 kts 283°
2026-04-14 09:56 55.45091 -9.75939 33740 ft 396 kts 283°
2026-04-14 09:56 55.46959 -9.85078 33727 ft 396 kts 283°
2026-04-14 09:57 55.48874 -9.94221 33727 ft 398 kts 285°
2026-04-14 09:57 55.51184 -10.03160 33730 ft 402 kts 290°
2026-04-14 09:58 55.53933 -10.11856 33715 ft 407 kts 291°
2026-04-14 09:58 55.56784 -10.20521 33717 ft 407 kts 291°
2026-04-14 09:59 55.59154 -10.27730 33717 ft 407 kts 291°
2026-04-14 09:59 55.62000 -10.36404 33709 ft 407 kts 291°
2026-04-14 10:00 55.64843 -10.45098 33709 ft 407 kts 291°
2026-04-14 10:00 55.67681 -10.53802 33711 ft 407 kts 291°
2026-04-14 10:01 55.70508 -10.62507 33697 ft 407 kts 291°
2026-04-14 10:01 55.73333 -10.71238 33694 ft 407 kts 291°
2026-04-14 10:02 55.76166 -10.79998 33698 ft 409 kts 290°
2026-04-14 10:02 55.78990 -10.88798 33684 ft 409 kts 290°
2026-04-14 10:03 55.81808 -10.97609 33714 ft 410 kts 290°
2026-04-14 10:03 55.84628 -11.06459 33697 ft 411 kts 290°
2026-04-14 10:04 55.87449 -11.15335 33675 ft 411 kts 290°
2026-04-14 10:04 55.90263 -11.24222 33679 ft 411 kts 290°
2026-04-14 10:05 55.93067 -11.33112 33677 ft 411 kts 290°
2026-04-14 10:05 55.95873 -11.42030 33661 ft 413 kts 289°
2026-04-14 10:06 55.98688 -11.51028 33667 ft 415 kts 289°
2026-04-14 10:06 56.01498 -11.60040 33665 ft 415 kts 289°
2026-04-14 10:07 56.04303 -11.69089 33689 ft 417 kts 290°
2026-04-14 10:07 56.07119 -11.78186 33672 ft 417 kts 290°
2026-04-14 10:08 56.09931 -11.87299 33670 ft 417 kts 290°
2026-04-14 10:08 56.12735 -11.96425 33656 ft 417 kts 289°
2026-04-14 10:09 56.15508 -12.05485 33658 ft 417 kts 289°
2026-04-14 10:09 56.18298 -12.14640 33657 ft 417 kts 289°
2026-04-14 10:10 56.21079 -12.23800 33644 ft 417 kts 289°
2026-04-14 10:10 56.23850 -12.32971 33672 ft 417 kts 290°
2026-04-14 10:11 56.26621 -12.42182 33649 ft 419 kts 290°
2026-04-14 10:11 56.29395 -12.51415 33638 ft 419 kts 290°
2026-04-14 10:12 56.32161 -12.60666 33637 ft 419 kts 290°
2026-04-14 10:12 56.34919 -12.69928 33635 ft 419 kts 289°
2026-04-14 10:13 56.37674 -12.79214 33619 ft 422 kts 289°
2026-04-14 10:13 56.40443 -12.88596 33622 ft 423 kts 289°
2026-04-14 10:14 56.43188 -12.97923 33664 ft 423 kts 289°
2026-04-14 10:14 56.45966 -13.07426 33622 ft 424 kts 290°
2026-04-14 10:15 56.48726 -13.16875 33615 ft 424 kts 290°
2026-04-14 10:15 56.51461 -13.26277 33616 ft 424 kts 290°
2026-04-14 10:16 56.54207 -13.35763 33598 ft 424 kts 289°
2026-04-14 10:16 56.56944 -13.45255 33612 ft 425 kts 289°
2026-04-14 10:17 56.59689 -13.54819 33599 ft 427 kts 289°
2026-04-14 10:17 56.62432 -13.64414 33589 ft 428 kts 289°
2026-04-14 10:18 56.66535 -13.78853 33596 ft 429 kts 289°
2026-04-14 10:18 56.69274 -13.88527 33582 ft 429 kts 289°
2026-04-14 10:19 56.72003 -13.98208 33583 ft 429 kts 289°
2026-04-14 10:19 56.74724 -14.07904 33584 ft 429 kts 289°
2026-04-14 10:20 56.77437 -14.17612 33578 ft 431 kts 289°
2026-04-14 10:20 56.80164 -14.27419 33568 ft 433 kts 289°
2026-04-14 10:21 56.82884 -14.37241 33601 ft 434 kts 289°
2026-04-14 10:21 56.85607 -14.47123 33571 ft 435 kts 289°
2026-04-14 10:22 56.88325 -14.57008 33555 ft 435 kts 289°
2026-04-14 10:22 56.91019 -14.66856 33569 ft 435 kts 289°
2026-04-14 10:23 56.93719 -14.76768 33540 ft 435 kts 289°
2026-04-14 10:23 56.96427 -14.86756 33575 ft 435 kts 289°
2026-04-14 10:24 56.99109 -14.96708 33555 ft 438 kts 288°
2026-04-14 10:24 57.01558 -15.06905 33539 ft 435 kts 285°
2026-04-14 10:25 57.03868 -15.17209 33552 ft 436 kts 285°
2026-04-14 10:25 57.06174 -15.27549 33528 ft 436 kts 285°
2026-04-14 10:26 57.08472 -15.37892 33525 ft 436 kts 285°
2026-04-14 10:26 57.10758 -15.48231 33532 ft 436 kts 285°
2026-04-14 10:27 57.13040 -15.58601 33535 ft 438 kts 285°
2026-04-14 10:27 57.15330 -15.69069 33521 ft 441 kts 285°
2026-04-14 10:28 57.17618 -15.79567 33523 ft 441 kts 285°
2026-04-14 10:28 57.19894 -15.90066 33531 ft 441 kts 285°
2026-04-14 10:29 57.22165 -16.00600 33507 ft 442 kts 285°
2026-04-14 10:29 57.24431 -16.11156 33516 ft 442 kts 285°
2026-04-14 10:30 57.26687 -16.21724 33497 ft 441 kts 284°
2026-04-14 10:30 57.28934 -16.32307 33514 ft 444 kts 284°
2026-04-14 10:31 57.31193 -16.43003 33495 ft 446 kts 284°
2026-04-14 10:31 57.33444 -16.53711 33488 ft 446 kts 284°
2026-04-14 10:32 57.35684 -16.64425 33490 ft 446 kts 284°
2026-04-14 10:32 57.37918 -16.75165 33491 ft 446 kts 284°
2026-04-14 10:33 57.40126 -16.85839 33481 ft 446 kts 284°
2026-04-14 10:33 57.42341 -16.96607 33485 ft 446 kts 284°
2026-04-14 10:34 57.45667 -17.12899 33478 ft 451 kts 284°
2026-04-14 10:35 57.47886 -17.23824 33476 ft 452 kts 284°
2026-04-14 10:35 57.50098 -17.34773 33462 ft 452 kts 284°
2026-04-14 10:36 57.52295 -17.45718 33468 ft 451 kts 284°
2026-04-14 10:36 57.54488 -17.56697 33467 ft 451 kts 284°
2026-04-14 10:37 57.56666 -17.67668 33454 ft 451 kts 284°
2026-04-14 10:37 57.58840 -17.78692 33479 ft 455 kts 284°
2026-04-14 10:38 57.61023 -17.89815 33454 ft 457 kts 284°
2026-04-14 10:38 57.63201 -18.00960 33447 ft 457 kts 283°
2026-04-14 10:39 57.65369 -18.12127 33449 ft 457 kts 283°
2026-04-14 10:39 57.67528 -18.23312 33439 ft 457 kts 283°
2026-04-14 10:40 57.69673 -18.34494 33446 ft 457 kts 283°
2026-04-14 10:40 57.71807 -18.45667 33453 ft 454 kts 283°
2026-04-14 10:41 57.73945 -18.56959 33436 ft 466 kts 283°
2026-04-14 10:41 57.76112 -18.68465 33433 ft 468 kts 283°
2026-04-14 10:42 57.78275 -18.79995 33438 ft 469 kts 283°
2026-04-14 10:42 57.80427 -18.91541 33436 ft 469 kts 282°
2026-04-14 10:43 57.82568 -19.03104 33437 ft 469 kts 282°
2026-04-14 10:43 57.84700 -19.14691 33434 ft 469 kts 282°
2026-04-14 10:44 57.86817 -19.26290 33436 ft 469 kts 283°
2026-04-14 10:44 57.88931 -19.37919 33421 ft 470 kts 283°
2026-04-14 10:45 57.91040 -19.49575 33428 ft 470 kts 283°
2026-04-14 10:45 57.93134 -19.61236 33426 ft 470 kts 283°
2026-04-14 10:46 57.95205 -19.72841 33425 ft 470 kts 282°
2026-04-14 10:46 57.97276 -19.84525 33428 ft 470 kts 282°
2026-04-14 10:47 57.99337 -19.96243 33457 ft 470 kts 282°
2026-04-14 10:47 58.00892 -20.06199 33425 ft 473 kts 279°
2026-04-14 10:48 58.02588 -20.18213 33428 ft 474 kts 279°
2026-04-14 10:48 58.04275 -20.30252 33411 ft 474 kts 279°
2026-04-14 10:49 58.05953 -20.42294 33409 ft 474 kts 279°
2026-04-14 10:49 58.07611 -20.54279 33422 ft 474 kts 279°
2026-04-14 10:50 58.09271 -20.66364 33418 ft 474 kts 279°
2026-04-14 10:50 58.10921 -20.78474 33426 ft 477 kts 279°
2026-04-14 10:51 58.12568 -20.90660 33416 ft 477 kts 279°
2026-04-14 10:51 58.14203 -21.02846 33415 ft 478 kts 278°
2026-04-14 10:52 58.15824 -21.15060 33401 ft 477 kts 279°
2026-04-14 10:52 58.17438 -21.27270 33414 ft 477 kts 279°
2026-04-14 10:53 58.19038 -21.39478 33416 ft 477 kts 279°
2026-04-14 10:53 58.20629 -21.51735 33419 ft 480 kts 278°
2026-04-14 10:54 58.22215 -21.64066 33418 ft 481 kts 278°
2026-04-14 10:54 58.23791 -21.76407 33413 ft 481 kts 278°
2026-04-14 10:55 58.25357 -21.88776 33415 ft 481 kts 278°
2026-04-14 10:55 58.26909 -22.01145 33433 ft 481 kts 278°
2026-04-14 10:56 58.28446 -22.13527 33414 ft 481 kts 278°
2026-04-14 10:56 58.29979 -22.25945 33432 ft 484 kts 278°
2026-04-14 10:57 58.31500 -22.38390 33405 ft 486 kts 278°
2026-04-14 10:57 58.33022 -22.50935 33430 ft 486 kts 278°
2026-04-14 10:58 58.34532 -22.63494 33418 ft 486 kts 278°
2026-04-14 10:58 58.36029 -22.76068 33412 ft 486 kts 278°
2026-04-14 10:59 58.37513 -22.88656 33422 ft 486 kts 278°
2026-04-14 10:59 58.38988 -23.01290 33434 ft 489 kts 278°
2026-04-14 11:00 58.40453 -23.13951 33423 ft 489 kts 278°
2026-04-14 11:00 58.41909 -23.26634 33428 ft 488 kts 278°
2026-04-14 11:01 58.43352 -23.39317 33425 ft 488 kts 278°
2026-04-14 11:01 58.44783 -23.52005 33424 ft 489 kts 278°
2026-04-14 11:02 58.46197 -23.64699 33428 ft 488 kts 277°
2026-04-14 11:02 58.47597 -23.77438 33444 ft 490 kts 278°
2026-04-14 11:03 58.49001 -23.90256 33424 ft 493 kts 277°
2026-04-14 11:03 58.50390 -24.03100 33424 ft 490 kts 277°
2026-04-14 11:04 58.51758 -24.15862 33422 ft 488 kts 278°